Delta 2 Rocket - Orbit

View from above orbital plane
View from above orbital plane
View from above satellite
View from above satellite

Ground track
Ground track

The orbit data is extracted from the following two-line orbital elements,

1 20453U 90008B   13137.83820416  .00008842  00000-0  60919-3 0  6805
2 20453 035.6276 272.1550 0344397 118.1439 245.4512 14.67870990227560
Epoch (UTC): 17 May 2013 20:07:00
Eccentricity: 0.0344397
inclination: 35.6276°
perigee height: 425 km
apogee height: 910 km
right ascension of ascending node: 272.1550°
argument of perigee: 118.1439°
revolutions per day: 14.67870990
mean anomaly at epoch: 245.4512°
orbit number at epoch: 22756

The dashed part of the orbit path shows where the satellite is in the earth's shadow,  

Developed and maintained by Chris Peat, Heavens-Above GmbH. Please read the updated FAQ before sending e-mail. Imprint. DLR